Погода в Чартаке

Узбекистан     41°04′37″N   71°48′51″E
темп.,
°C
ветер,
м/с
пор.,
м/с
влажн.,
%
обл.,
%
осадки,
мм/ч
давл.,
гПа
погр.,
м
4 августа, ср
ср423:00+27св222881 0.0 100421
02:00+25св223011 0.0 100420
05:00+23ссв22300 0.0 100517
08:00+31в22184 0.0 1006437
11:00+37зюз33144 0.0 10041607
14:00+39юз43110 0.0 10023107
17:00+39сз64120 0.0 10013265
20:00+28сз8143444 0.1 1005333
5 августа, чт
чт523:00+27с3433100 0.1 100463
02:00+24ссв333570 0.0 100531
05:00+24ссв22335 0.0 100519
08:00+30в23217 0.0 1005448
11:00+37ююв11150 0.0 10031463
14:00+40юз43110 0.0 10003242
17:00+40зюз44100 0.0 9983681
20:00+31ссз7132442 0.0 1000232
6 августа, пт
пт623:00+26с243316 0.0 100270
02:00+25ссв343343 0.0 100157
05:00+24ссв2234100 0.0 100316
08:00+31в22235 0.0 1003467
11:00+37зюз221516 0.0 10021663
14:00+40юз67110 0.0 9993351
17:00+40зсз46113 0.0 9984322
20:00+30ссв612260 0.0 1001316
7 августа, сб
сб723:00+25с34350 0.0 100259
02:00+24с333592 0.0 100240
05:00+23ссв2335100 0.0 100327
08:00+31всв23235 0.0 1004547
11:00+38ююз12140 0.0 10031646
14:00+40юз55110 0.0 10003106
17:00+40зюз66100 0.0 9993617
20:00+28св34263 0.0 100254
8 августа, вс
вс823:00+25ссв223287 0.0 100325
02:00+24св3334100 0.0 100438
05:00+22всв344865 0.3 100672
08:00+27в453891 0.1 1008440
11:00+34ююв2219100 0.3 10061051
14:00+38юз341267 0.0 10032942
17:00+39зюз6610100 0.0 10024020
20:00+28ссв61127100 0.0 1006240